Location: Old Broadwell Mill Observatory
(33.8015°N, 85.8137°W)
Time: 17:03:46
(UTC-05:00)

Amateur Radio Satellites - All Passes

Search period start: 31 October 2014 16:33
Search period end: 01 November 2014 16:33
Location: Old Broadwell Mill Observatory, 33.8015°N, 85.8137°W

Satellite Date Start Highest point End Downlink Frequencies (MHz)
Time Altitude Azimuth
AO-7 31 Oct 16:47:43 16:55:45 55° 257° (WSW) 17:03:50 29.400 - 29.500 MHz
OPAL 31 Oct 17:07:20 17:10:46 19° 97° (E) 17:14:12 ?
JAS-2 31 Oct 17:35:16 17:41:22 87° 257° (WSW) 17:48:22 435.800 - 435.900 CW/SSB, 435.910 FM
Hamsat 31 Oct 17:39:11 17:43:19 64° 76° (ENE) 17:47:27 145.90 MHz
ISS 31 Oct 17:45:57 17:49:07 41° 228° (SW) 17:52:17 145.800 FM
SO-67 31 Oct 18:23:32 18:25:59 19° 72° (ENE) 18:28:27 435.3500 MHz FM
RS-15 31 Oct 18:43:17 18:46:54 12° 98° (E) 18:50:29 29.354 - 29.394 USB, Beacon 29.352 USB
OPAL 31 Oct 18:45:10 18:49:44 39° 290° (WNW) 18:54:19 ?
STRAND 1 31 Oct 19:02:56 19:07:43 38° 99° (E) 19:12:27 ?
HO-68 31 Oct 19:07:06 19:09:47 12° 56° (NE) 19:12:27 435.675 MHz FM
KITSAT 1 31 Oct 19:31:57 19:39:33 42° 55° (NE) 19:47:05 435.175 FM
SO-50 31 Oct 19:45:28 19:50:01 38° 56° (NE) 19:54:33 436.795 FM
AO-40 31 Oct 19:49:09 21:20:51 16° 104° (ESE) 22:16:59 Beacon 2401.320
Oscar 10/S400 31 Oct 19:53:24 20:28:22 64° 200° (SSW) 06:32:20 145.825 - 145.975 CW/USB, Beacon 145.810 USB
SO-67 31 Oct 19:56:28 19:58:49 17° 265° (W) 20:01:10 435.3500 MHz FM
UOSAT-12 31 Oct 20:30:18 20:31:35 11° 45° (NE) 20:32:51 437.025 FM, 437.400 FM
STRAND 1 31 Oct 20:42:48 20:46:36 21° 293° (WNW) 20:50:23 ?
RS-15 31 Oct 20:46:20 20:57:20 75° 114° (ESE) 21:08:12 29.354 - 29.394 USB, Beacon 29.352 USB
MaSat-1 31 Oct 20:47:47 20:49:55 14° 106° (ESE) 20:51:57 437.345 MHz
HO-68 31 Oct 20:49:10 20:56:18 79° 73° (ENE) 21:03:30 435.675 MHz FM
UKube-1 31 Oct 21:22:36 21:26:47 50° 74° (ENE) 21:31:01 145.840 MHz, 145.915 MHz
SO-50 31 Oct 21:26:40 21:30:18 21° 250° (WSW) 21:33:56 436.795 FM
KITSAT 1 31 Oct 21:27:31 21:34:46 38° 252° (WSW) 21:42:00 435.175 FM
ZACube-1 31 Oct 21:32:50 21:36:31 25° 71° (ENE) 21:40:09 437.345 MHz
Oscar 11 31 Oct 21:57:13 22:01:30 66° 259° (W) 22:05:48 145.825 FM, Beacon 2401.500 USB
UOSAT-12 31 Oct 22:07:39 22:12:22 87° 242° (WSW) 22:16:58 437.025 FM, 437.400 FM
FUNcube-1 31 Oct 22:14:37 22:19:10 77° 77° (ENE) 22:23:38 145.950 - 145.970 MHz USB
MaSat-1 31 Oct 22:21:30 22:25:05 32° 295° (WNW) 22:28:21 437.345 MHz
HO-68 31 Oct 22:40:45 22:44:36 15° 268° (W) 22:48:28 435.675 MHz FM
RS-15 31 Oct 23:01:31 23:10:40 30° 316° (NW) 23:19:52 29.354 - 29.394 USB, Beacon 29.352 USB
UKube-1 31 Oct 23:01:55 23:03:12 11° 267° (W) 23:04:29 145.840 MHz, 145.915 MHz
ZACube-1 31 Oct 23:09:03 23:12:47 25° 264° (W) 23:16:28 437.345 MHz
Sapphire 01 Nov 00:52:04 00:55:31 17° 105° (ESE) 00:58:59 437.095 MHz 1200 baud AX-25 AFSK
PCSat 01 Nov 01:12:14 01:16:55 31° 108° (ESE) 01:21:37 145.825 MHz
JAS-1B 01 Nov 01:17:47 01:24:18 30° 98° (E) 01:31:42 435.800 - 435.900 CW/SSB
RS-15 01 Nov 01:27:14 01:28:33 10° 351° (N) 01:29:52 29.354 - 29.394 USB, Beacon 29.352 USB
Oscar 19 01 Nov 01:35:22 01:39:51 30° 97° (E) 01:44:19 437.125 CW, 437.150 USB
PANSAT 01 Nov 02:07:29 02:08:20 11° 157° (SSE) 02:09:12 not established
AO-27 01 Nov 02:13:09 02:17:36 28° 97° (E) 02:22:00 436.795 MHz FM
Oscar 16 01 Nov 02:22:01 02:27:10 85° 284° (WNW) 02:32:17 437.025 USB, Beacon 2401.1428
Gurwin Techsat 1B 01 Nov 02:32:03 02:36:07 22° 95° (E) 02:40:11 435.225 FM
Sapphire 01 Nov 02:33:13 02:38:27 51° 299° (WNW) 02:43:44 437.095 MHz 1200 baud AX-25 AFSK
TMSAT-1 01 Nov 02:38:26 02:42:02 18° 94° (E) 02:45:37 436.925 FM
AO-Echo 01 Nov 02:52:25 02:57:46 83° 284° (WNW) 03:02:59 ?
PCSat 01 Nov 02:55:31 03:00:14 30° 303° (WNW) 03:04:59 145.825 MHz
Uribyol 2 01 Nov 02:56:00 03:01:13 82° 103° (ESE) 03:06:23 436.500 FM
ITAMSAT 1 01 Nov 03:04:07 03:09:21 88° 284° (WNW) 03:14:32 435.822 SSB
JAS-1B 01 Nov 03:07:44 03:14:49 52° 288° (WNW) 03:23:11 435.800 - 435.900 CW/SSB
Oscar 19 01 Nov 03:14:50 03:19:01 26° 291° (WNW) 03:23:12 437.125 CW, 437.150 USB
RS-15 01 Nov 03:41:22 03:48:07 17° 30° (NNE) 03:54:59 29.354 - 29.394 USB, Beacon 29.352 USB
PANSAT 01 Nov 03:44:40 03:47:56 27° 168° (SSE) 03:51:12 not established
AO-27 01 Nov 03:52:33 03:57:00 29° 291° (WNW) 04:01:25 436.795 MHz FM
Gurwin Techsat 1B 01 Nov 04:11:16 04:16:07 37° 289° (WNW) 04:20:57 435.225 FM
TMSAT-1 01 Nov 04:17:05 04:22:06 44° 288° (WNW) 04:27:05 436.925 FM
Saudisat 1A 01 Nov 04:17:08 04:19:46 16° 109° (ESE) 04:22:23 436.775 MHz
OPAL 01 Nov 04:18:26 04:22:26 24° 66° (ENE) 04:26:24 ?
Uribyol 2 01 Nov 04:39:26 04:39:55 10° 298° (WNW) 04:40:24 436.500 FM
Uosat F 01 Nov 04:44:36 04:49:23 42° 99° (E) 04:54:08 435.120 FM
JAS-2 01 Nov 04:50:15 04:55:41 20° 91° (E) 05:00:55 435.800 - 435.900 CW/SSB, 435.910 FM
AO-7 01 Nov 04:53:20 05:01:38 67° 105° (ESE) 05:09:55 29.400 - 29.500 MHz
PANSAT 01 Nov 05:24:10 05:27:44 37° 180° (S) 05:31:17 not established
Hamsat 01 Nov 05:29:54 05:32:24 15° 94° (E) 05:34:54 145.90 MHz
RS-15 01 Nov 05:52:20 06:03:25 61° 57° (ENE) 06:14:58 29.354 - 29.394 USB, Beacon 29.352 USB
Saudisat 1A 01 Nov 05:54:49 05:58:57 40° 303° (WNW) 06:03:07 436.775 MHz
OPAL 01 Nov 05:56:27 06:01:05 34° 260° (W) 06:05:41 ?
STRAND 1 01 Nov 06:15:05 06:19:46 37° 71° (ENE) 06:24:29 ?
Uosat F 01 Nov 06:24:22 06:27:48 19° 294° (WNW) 06:31:12 435.120 FM
JAS-2 01 Nov 06:33:23 06:41:13 71° 286° (WNW) 06:48:38 435.800 - 435.900 CW/SSB, 435.910 FM
AO-7 01 Nov 06:47:24 06:53:41 25° 301° (WNW) 06:59:59 29.400 - 29.500 MHz
PANSAT 01 Nov 07:04:17 07:07:31 26° 193° (SSW) 07:10:44 not established
Hamsat 01 Nov 07:04:33 07:08:24 35° 287° (WNW) 07:12:15 145.90 MHz
SO-67 01 Nov 07:22:17 07:25:30 36° 98° (E) 07:28:41 435.3500 MHz FM
STRAND 1 01 Nov 07:55:11 07:59:00 21° 265° (W) 08:02:51 ?
RS-15 01 Nov 08:05:30 08:15:10 34° 254° (WSW) 08:25:14 29.354 - 29.394 USB, Beacon 29.352 USB
MaSat-1 01 Nov 08:09:26 08:11:33 28° 251° (WSW) 08:13:37 437.345 MHz
JAS-2 01 Nov 08:21:52 08:24:47 13° 303° (WNW) 08:27:40 435.800 - 435.900 CW/SSB, 435.910 FM
HO-68 01 Nov 08:23:11 08:27:42 18° 93° (E) 08:32:10 435.675 MHz FM
ISS 01 Nov 08:48:38 08:51:43 38° 132° (SE) 08:54:50 145.800 FM
UKube-1 01 Nov 09:16:56 09:18:24 11° 93° (E) 09:19:51 145.840 MHz, 145.915 MHz
Oscar 11 01 Nov 09:49:03 09:52:48 29° 97° (E) 09:56:32 145.825 FM, Beacon 2401.500 USB
KITSAT 1 01 Nov 09:55:30 10:03:09 49° 110° (ESE) 10:10:49 435.175 FM
SO-50 01 Nov 09:57:08 10:00:56 28° 111° (ESE) 10:04:49 436.795 FM
PCSat 01 Nov 10:05:30 10:07:48 13° 48° (NE) 10:10:04 145.825 MHz
HO-68 01 Nov 10:08:43 10:15:53 71° 288° (WNW) 10:22:59 435.675 MHz FM
FUNcube-1 01 Nov 10:08:47 10:11:41 18° 95° (E) 10:14:33 145.950 - 145.970 MHz USB
ISS 01 Nov 10:26:05 10:28:31 19° 327° (NNW) 10:30:57 145.800 FM
UKube-1 01 Nov 10:50:35 10:54:48 48° 286° (WNW) 10:58:58 145.840 MHz, 145.915 MHz
ZACube-1 01 Nov 11:01:20 11:05:32 87° 101° (E) 11:09:40 437.345 MHz
Sapphire 01 Nov 11:24:57 11:30:18 55° 62° (ENE) 11:35:35 437.095 MHz 1200 baud AX-25 AFSK
Oscar 11 01 Nov 11:25:40 11:28:45 20° 291° (WNW) 11:31:50 145.825 FM, Beacon 2401.500 USB
SO-50 01 Nov 11:37:41 11:41:24 25° 307° (NW) 11:45:14 436.795 FM
FUNcube-1 01 Nov 11:44:31 11:48:02 27° 288° (WNW) 11:51:33 145.950 - 145.970 MHz USB
PCSat 01 Nov 11:46:27 11:51:53 86° 245° (WSW) 11:57:17 145.825 MHz
KITSAT 1 01 Nov 11:51:32 11:58:41 34° 307° (NW) 12:05:53 435.175 FM
HO-68 01 Nov 12:00:42 12:02:17 11° 305° (NW) 12:03:52 435.675 MHz FM
JAS-1B 01 Nov 12:04:58 12:06:21 11° 60° (ENE) 12:07:44 435.800 - 435.900 CW/SSB
UOSAT-12 01 Nov 12:14:46 12:19:20 72° 117° (ESE) 12:24:01 437.025 FM, 437.400 FM
Oscar 19 01 Nov 12:48:36 12:53:02 30° 70° (ENE) 12:57:28 437.125 CW, 437.150 USB
Sapphire 01 Nov 13:10:00 13:13:10 16° 256° (WSW) 13:16:20 437.095 MHz 1200 baud AX-25 AFSK
AO-27 01 Nov 13:27:35 13:32:03 29° 69° (ENE) 13:36:31 436.795 MHz FM
Oscar 16 01 Nov 13:34:59 13:40:09 88° 257° (WSW) 13:45:19 437.025 USB, Beacon 2401.1428
Gurwin Techsat 1B 01 Nov 13:49:29 13:53:42 25° 68° (ENE) 13:57:56 435.225 FM
JAS-1B 01 Nov 13:50:27 13:56:17 76° 257° (WSW) 14:01:59 435.800 - 435.900 CW/SSB
TMSAT-1 01 Nov 13:55:35 13:59:24 21° 67° (ENE) 14:03:14 436.925 FM
UOSAT-12 01 Nov 13:57:53 13:59:59 13° 314° (NW) 14:02:07 437.025 FM, 437.400 FM
AO-Echo 01 Nov 14:01:12 14:06:09 83° 76° (ENE) 14:11:18 ?
AO-7 01 Nov 14:02:36 14:04:45 11° 51° (NE) 14:06:54 29.400 - 29.500 MHz
Uribyol 2 01 Nov 14:09:51 14:15:04 83° 76° (ENE) 14:20:19 436.500 FM
ITAMSAT 1 01 Nov 14:18:06 14:23:19 87° 256° (WSW) 14:28:35 435.822 SSB
Saudisat 1A 01 Nov 14:24:49 14:29:07 49° 58° (ENE) 14:33:23 436.775 MHz
Oscar 19 01 Nov 14:28:03 14:32:18 26° 264° (W) 14:36:33 437.125 CW, 437.150 USB
AO-27 01 Nov 15:07:03 15:11:27 28° 263° (W) 15:15:53 436.795 MHz FM
ISS 01 Nov 15:21:34 15:22:54 12° 28° (NNE) 15:24:14 145.800 FM
Gurwin Techsat 1B 01 Nov 15:28:40 15:33:26 34° 262° (W) 15:38:15 435.225 FM
TMSAT-1 01 Nov 15:34:00 15:38:59 42° 261° (W) 15:44:00 436.925 FM
AO-7 01 Nov 15:47:47 15:55:54 64° 69° (ENE) 16:04:04 29.400 - 29.500 MHz
Uosat F 01 Nov 15:54:04 15:58:43 39° 71° (ENE) 16:03:23 435.120 FM
Saudisat 1A 01 Nov 16:06:11 16:08:13 13° 252° (WSW) 16:10:15 436.775 MHz
